SCP
0 0 0 0 0 0 0 0 0 0 0 0 0 0 0 0 0 0 0 0 0 0 0 0 0 0 0 0 0 0 0 0 0 0 0 0 0 0 0 -0 -0 0 0 0 0 0 0 0 0 0 0 -0 0 -0
0 0 0 0 0 0 0 0 0 0 0 0 0 0 0 0 0 0 0 0 0 0 0 0 0 0 0 0 0 0 0 0 0 0 0 0 0 0 0 0 0 0 0 0 0 0 0 0 0 0 0 -0 -0 -0
0 0 0 0 0 0 0 0 0 0 0 0 0 0 0 0 0 0 0 0 0 0 0 0 0 0 0 0 0 0 0 0 0 0 0 0 0 0 0 0 0 0 0 0 0 0 0 0 0 0 0 -0 -0 -0
0 0 0 0 0 0 0 0 0 0 0 0 0 0 0 0 0 0 0 0 0 0 0 0 0 0 -0 0 0 0 0 0 0 0 0 0 0 0 0 0 -0 0 0 0 0 0 0 0 0 0 -0 -0 0 0
0 0 0 0 0 0 0 0 0 0 0 0 0 0 0 0 0 0 0 0 0 0 0 0 0 0 0 0 0 0 0 0 0 0 0 0 0 0 0 0 0 0 0 0 0 0 0 0 0 0 0 -0 -0 -0
0 0 0 0 0 0 0 0 0 0 0 0 0 0 0 0 0 0 0 0 0 0 0 0 0 0 -0 0 0 0 0 0 0 0 0 0 0 0 0 0 0 0 -0 0 0 0 0 0 0 0 -0 -0 -0 -0
0 0 0 0 0 0 0 0 0 0 0 0 0 0 0 0 0 0 0 0 0 0 0 0 0 0 0 0 0 0 0 0 0 0 0 0 0 0 0 0 0 -0 0 0 0 0 0 -0 0 -0 -0 -0 -0 0
0 0 0 0 0 0 0 0 0 -0 -0 0 0 0 0 0 0 0 0 0 0 0 0 0 0 0 0 0 0 0 0 0 0 0 0 0 0 0 0 0 -0 0 0 0 0 0 0 0 0 -0 -0 -0 -0 0
0 0 0 0 0 0 0 0 0 0 -0 -0 0 0 0 0 0 0 0 0 0 0 0 0 0 0 -0 -0 0 0 0 0 0 0 0 0 0 0 0 -0 -0 0 0 0 0 0 -0 -0 -0 -0 -0 -0 0 0
0 0 0 0 0 0 0 0 0 0 0 -0 0 0 0 0 0 0 0 0 0 0 0 0 0 0 -0 -0 -0 -0 0 0 0 0 0 0 0 0 0 0 0 0 0 0 0 -0 0 -0 -0 -0 -0 0 0 0
0 0 0 0 0 0 0 0 0 0 0 0 0 0 0 0 0 0 0 0 0 0 0 0 0 -0 0 0 0 -0 0 0 0 0 0 0 -0 0 -0 0 0 0 0 0 0 0 0 -0 -0 -0 0 0 0 0
0 0 0 0 0 0 0 0 0 0 0 0 0 0 0 0 0 0 0 0 0 0 -0 -0 0 0 0 0 0 -0 -0 -0 0 0 0 0 0 -0 -0 0 0 0 0 0 0 0 0 -0 -0 0 0 0 0 0
0 0 0 0 0 0 0 0 0 0 0 0 0 0 0 0 0 0 0 0 0 -0 -0 -0 -0 -0 0 0 -0 -0 -0 0 0 -0 0 0 0 -0 -0 0 0 0 0 0 0 0 0 0 -0 0 0 0 0 0
0 0 0 0 0 0 0 0 0 0 0 0 0 0 0 0 0 0 0 0 0 0 0 -0 -0 -0 0 0 -0 -0 -0 -0 -0 -0 -0 -0 -0 -0 -0 0 0 0 0 -0 -0 0 0 0 -0 0 0 0 0 0
0 0 0 0 0 0 0 0 0 0 0 0 0 0 0 0 0 0 0 0 0 0 0 0 0 0 0 -0 -0 -0 -0 0 0 0 -0 -0 -0 -0 -0 0 0 0 0 0 -0 0 0 0 -0 0 0 0 0 0
0 0 0 0 0 0 0 -0 0 0 0 0 0 0 0 0 0 0 0 0 0 0 0 0 -0 0 0 -0 0 0 0 0 0 0 0 -0 -0 -0 -0 -0 0 0 0 0 -0 -0 -0 0 -0 -0 0 0 0 0
0 0 0 0 0 0 -0 0 0 0 0 0 0 0 0 0 0 0 0 0 0 0 0 0 -0 0 0 0 0 0 0 0 0 0 0 -0 -0 0 -0 -0 -0 0 0 -0 -0 -0 -0 -0 0 -0 -0 0 0 0
0 0 0 0 0 0 0 0 0 0 0 0 0 0 0 0 -0 -0 0 0 0 -0 -0 -0 0 0 0 0 0 0 0 -0 0 0 -0 0 -0 -0 -0 -0 -0 -0 0 -0 -0 -0 0 0 -0 -0 -0 -0 -0 -0
0 0 0 0 0 0 0 0 0 0 0 0 0 0 0 0 0 0 0 -0 0 -0 -0 0 -0 -0 0 0 0 0 0 0 0 0 -0 -0 0 -0 -0 -0 -0 -0 -0 0 0 -0 -0 0 0 -0 -0 -0 -0 -0
0 0 0 0 0 0 0 0 0 0 0 0 0 0 0 0 0 0 0 0 0 0 0 0 0 -0 -0 -0 -0 0 0 -0 -0 0 0 0 -0 -0 -0 -0 -0 -0 -0 -0 0 -0 0 -0 -0 -0 0 -0 -0 -0
0 0 0 0 0 0 0 0 0 0 0 0 0 -0 0 0 0 0 0 0 0 0 0 0 -0 -0 -0 -0 -0 -0 0 0 -0 0 0 0 -0 -0 -0 -0 -0 0 0 -0 0 0 0 -0 -0 0 -0 0 0 -0
0 0 0 0 0 0 0 0 0 0 0 0 0 -0 0 0 0 0 0 0 0 0 0 0 0 0 0 0 0 -0 0 0 0 0 0 0 0 0 -0 -0 -0 -0 0 0 0 0 -0 -0 -0 -0 0 -0 -0 -0
0 0 0 0 0 0 0 0 0 0 0 0 0 0 0 0 0 0 0 0 0 0 0 0 -0 -0 -0 -0 -0 0 0 0 0 0 0 0 0 0 0 0 0 -0 0 0 -0 -0 -0 -0 -0 -0 -0 0 0 0
0 0 0 0 0 0 0 0 0 0 0 0 0 0 0 0 0 0 0 0 0 0 0 0 0 0 0 -0 -0 0 0 0 0 0 0 0 0 0 0 0 0 0 0 0 -0 0 0 0 -0 -0 -0 -0 -0 0
0 0 0 0 0 0 0 0 0 0 0 0 0 0 0 0 0 0 0 0 0 0 0 0 -0 -0 -0 -0 -0 -0 0 0 0 0 0 0 0 0 0 0 0 0 0 -0 -0 -0 0 0 0 0 -0 -0 -0 -0
0 0 0 0 0 0 0 0 0 0 0 0 0 0 0 0 0 0 0 0 0 0 0 0 0 -0 -0 -0 -0 -0 0 0 0 0 0 0 0 0 0 0 0 0 0 0 0 0 -0 0 0 0 0 -0 -0 -0
0 0 0 0 0 0 0 0 0 0 0 0 0 0 0 0 0 0 0 0 0 0 0 0 0 -0 -0 -0 -0 -0 -0 -0 -0 0 -0 -0 0 0 0 0 0 0 0 0 0 0 0 0 0 0 0 0 0 0
0 0 0 0 0 0 0 0 0 0 0 0 0 0 0 0 0 0 0 0 0 0 0 0 0 0 -0 -0 -0 -0 -0 0 -0 0 -0 -0 0 0 0 0 0 0 0 0 0 0 0 0 0 0 0 0 0 0
0 0 0 0 0 0 0 0 0 0 0 0 0 0 0 0 0 0 0 0 0 0 0 0 0 0 0 -0 -0 -0 -0 -0 0 -0 0 0 0 0 0 0 0 0 0 0 0 0 0 0 0 0 0 0 0 0
0 0 0 0 0 0 0 0 0 0 0 0 0 0 0 0 0 0 0 0 0 0 0 0 0 0 0 0 0 -0 -0 -0 -0 -0 0 0 0 0 0 0 0 0 0 0 0 0 0 0 0 0 0 0 0 0
0 0 0 0 0 0 0 0 0 0 0 0 0 0 0 0 0 0 0 0 0 0 0 0 0 0 0 0 0 0 0 -0 -0 -0 0 -0 0 0 0 0 0 0 0 0 0 0 0 0 0 0 0 0 0 0
0 0 0 0 0 0 0 0 0 0 0 0 0 0 0 0 0 0 0 0 0 0 0 0 0 0 0 0 0 0 0 -0 -0 -0 0 0 0 0 0 0 -0 -0 0 0 0 0 0 0 0 0 0 0 0 0
0 0 0 0 0 0 0 0 0 0 0 0 0 0 0 0 0 0 0 0 0 0 0 0 0 0 0 0 0 0 0 0 -0 -0 -0 -0 -0 -0 0 0 0 -0 0 0 0 0 0 0 0 0 0 0 0 0
Wind_Speed_500mb
39 37 40 41 41 41 42 45 53 52 49 48 48 46 43 38 28 29 25 14 20 30 69 72 62 50 40 43 9 17 19 15 8 6 5 6 5 7 8 9 9 6 5 6 4 7 13 12 6 3 14 52 28 31
41 39 40 41 41 42 43 44 51 53 52 49 49 47 44 38 24 24 35 10 24 36 50 69 89 81 67 75 56 28 16 12 7 6 5 6 6 7 11 7 12 7 5 7 10 10 1 12 11 32 37 44 48 43
39 41 42 41 40 41 44 45 51 51 51 51 49 48 45 40 29 28 38 31 27 37 63 29 41 25 33 28 28 37 14 23 20 15 5 4 7 6 5 8 16 10 24 7 17 12 15 17 20 24 41 50 61 53
38 41 41 42 40 40 42 47 47 50 50 52 50 48 46 43 39 37 47 37 20 21 14 21 35 39 36 29 29 48 47 14 22 21 7 6 5 10 7 14 25 25 21 8 15 13 24 10 27 41 51 53 56 53
39 41 40 41 40 38 41 48 45 50 50 50 49 47 46 43 42 48 43 22 13 23 10 35 80 9 26 20 48 40 44 42 32 8 8 7 8 9 8 10 13 5 4 7 5 4 11 20 47 47 47 50 55 53
42 42 39 40 38 37 43 51 47 50 50 47 46 45 45 44 41 32 10 17 7 23 13 8 28 39 11 10 23 48 44 36 26 8 7 9 20 8 7 7 12 16 38 17 3 13 11 32 43 44 52 40 47 47
44 41 39 39 36 36 43 51 48 52 47 45 43 43 46 38 30 11 9 4 8 18 7 13 14 19 21 15 24 36 42 24 21 9 11 9 13 14 6 16 16 48 44 8 2 18 22 52 48 51 39 36 38 34
45 42 39 37 33 36 43 49 50 49 44 42 39 37 35 25 10 11 12 13 28 18 7 6 9 17 14 8 8 17 15 26 16 9 8 9 11 17 9 24 16 42 20 10 8 19 26 45 47 39 35 41 37 32
42 44 38 32 32 36 43 46 49 44 43 40 30 32 19 3 4 9 18 15 10 13 6 8 6 8 10 7 13 15 20 7 11 7 8 8 7 9 19 13 26 20 13 8 33 26 36 40 46 32 35 42 44 37
43 45 31 30 32 36 41 43 43 40 40 31 15 5 3 4 12 21 6 4 7 6 8 7 12 11 33 21 7 9 3 5 6 12 11 8 7 35 24 16 3 20 13 23 35 32 34 45 43 33 35 37 38 32
45 34 29 29 29 35 37 38 35 37 32 19 11 8 14 15 7 9 10 8 10 5 7 7 17 22 26 9 6 9 6 6 5 5 5 4 3 7 10 6 22 15 18 22 26 10 39 40 29 34 36 37 35 36
38 30 28 28 29 32 34 30 27 27 23 22 13 12 13 6 9 7 6 5 2 1 7 7 10 19 16 10 5 9 6 5 8 10 6 5 6 12 9 3 17 14 14 20 22 21 39 29 40 30 36 39 32 35
37 34 28 28 27 28 26 20 20 21 14 4 5 4 3 6 3 6 10 2 7 7 14 21 10 19 11 10 11 6 8 8 25 2 5 6 28 26 25 7 15 17 17 24 26 26 36 25 34 41 37 38 37 34
40 34 30 24 22 24 16 15 16 10 1 4 8 5 5 5 4 6 8 7 10 21 36 35 17 7 6 4 3 8 8 9 8 7 0 7 52 26 3 12 16 23 18 23 20 24 31 37 27 38 42 36 41 43
37 33 28 16 18 15 10 9 5 3 5 6 7 4 2 15 26 29 29 28 27 30 35 29 21 17 3 5 2 6 8 5 8 10 9 43 63 36 21 4 10 19 21 24 18 24 27 32 48 36 35 44 40 40
33 28 17 13 11 7 5 5 9 8 3 4 7 9 17 14 17 22 25 28 25 26 33 16 6 6 3 2 3 12 8 8 7 13 38 53 63 49 34 14 9 17 20 22 20 18 17 22 40 44 45 47 47 40
30 20 10 11 5 5 12 13 6 5 4 4 12 23 28 17 21 21 19 25 32 13 1 5 6 6 6 9 7 7 8 8 39 41 52 69 63 45 42 22 15 4 12 19 14 10 13 17 29 42 45 49 51 46
26 16 15 10 14 18 11 7 6 8 10 22 15 9 11 16 18 26 27 31 30 28 21 5 9 8 11 8 7 15 42 53 55 53 56 56 46 56 41 42 33 8 8 8 12 17 18 15 23 32 38 37 39 48
28 23 14 16 23 13 9 7 6 7 12 10 10 9 12 16 23 21 17 21 21 22 11 11 11 6 6 10 31 43 48 51 54 56 55 53 55 60 44 42 30 14 4 3 8 9 23 22 23 25 24 26 26 42
26 22 15 15 28 9 6 6 9 7 8 5 10 9 11 12 14 21 23 27 28 15 18 9 8 18 22 35 40 48 47 50 51 56 57 64 61 61 50 49 44 14 11 4 5 17 20 18 21 25 20 28 31 24
26 20 15 24 19 7 6 5 14 9 6 8 9 13 12 17 24 28 28 26 25 12 9 10 21 28 29 32 36 40 36 39 43 46 54 53 58 55 56 56 28 22 4 15 15 4 15 11 18 12 11 20 27 32
22 21 25 17 8 9 7 9 7 6 4 12 12 7 9 11 13 11 19 19 11 11 11 20 24 28 37 44 44 43 39 37 35 27 30 38 49 49 52 57 63 38 15 6 11 14 10 19 15 3 22 33 30 32
27 24 12 11 8 11 11 8 10 10 5 4 4 3 6 6 9 12 9 9 7 16 19 24 24 27 28 35 51 50 45 42 38 31 33 36 38 39 39 37 46 42 20 18 9 11 8 23 12 6 18 21 26 30
26 13 9 13 15 9 10 15 7 2 6 5 3 3 6 8 10 7 6 7 7 10 18 23 29 30 35 36 45 57 50 43 36 36 39 40 46 47 37 26 23 28 26 23 14 6 7 21 20 15 19 18 29 26
8 10 8 10 16 11 10 9 13 6 8 8 6 4 6 9 4 4 6 9 5 10 17 21 24 29 34 40 42 52 51 42 42 39 47 44 46 49 46 37 28 15 26 12 10 8 20 10 14 29 27 17 29 28
7 12 13 20 9 10 11 10 10 10 10 10 9 9 8 7 3 6 6 6 5 9 14 19 25 30 34 35 40 49 52 46 35 35 39 46 49 53 51 52 49 36 28 18 17 17 2 15 20 23 37 23 31 32
7 11 15 17 18 20 9 17 22 9 9 10 7 8 4 7 5 7 12 5 8 10 14 17 19 22 24 30 32 37 48 39 40 26 26 31 35 55 54 52 50 45 38 26 15 15 12 6 12 25 18 39 36 38
14 10 17 28 23 27 8 9 8 11 10 10 14 7 10 4 5 11 11 8 4 8 10 13 15 16 16 20 24 32 44 46 38 34 29 38 45 55 58 54 45 40 29 24 18 16 13 7 9 16 35 27 42 42
13 20 22 14 6 5 9 11 10 13 6 19 9 6 8 9 22 22 17 11 9 7 10 12 16 18 17 18 25 28 41 50 52 58 58 62 64 62 63 63 54 50 43 30 15 17 22 24 28 34 36 45 42 50
13 23 11 19 11 8 13 23 10 23 17 23 28 43 39 32 23 17 16 12 8 9 7 8 13 19 20 22 23 26 34 42 47 50 48 50 52 47 49 56 61 53 50 45 36 14 8 16 21 20 27 31 34 51
12 31 18 15 16 21 24 31 31 29 27 33 33 44 37 27 20 14 18 13 8 8 8 10 12 16 20 21 25 27 28 29 42 46 40 38 42 43 43 44 55 53 51 49 44 41 26 13 1 19 30 31 45 42
20 30 25 8 13 28 36 36 30 30 33 37 39 45 36 20 11 7 2 10 8 12 12 11 10 11 15 16 17 19 25 29 39 44 41 38 40 41 40 42 46 48 49 48 50 48 42 39 33 17 3 28 50 54
34 34 33 19 18 28 35 19 14 21 22 24 29 32 15 13 9 10 7 5 12 12 9 6 5 9 10 12 16 17 18 22 27 32 36 37 38 38 37 38 39 40 41 44 46 47 48 45 44 42 38 27 15 28
Wind_Direction_500mb
285 293 302 308 308 311 317 327 330 330 333 334 334 334 333 331 335 330 326 244 269 278 284 281 278 281 291 289 262 304 332 12 312 323 329 327 330 320 323 325 267 201 228 232 231 250 269 216 311 232 298 301 298 287
284 290 297 303 306 309 315 323 328 326 329 332 332 330 331 328 327 316 311 297 275 281 263 279 284 281 274 265 261 263 232 323 280 300 351 327 330 291 333 279 318 312 159 229 210 227 177 176 225 295 304 307 309 302
278 287 295 300 302 306 313 320 326 324 327 327 327 327 326 323 318 305 298 310 324 289 304 286 286 306 304 258 252 238 224 232 228 263 326 282 271 334 290 270 291 304 298 277 302 263 265 273 292 309 309 302 304 296
275 283 291 295 299 304 311 318 324 323 325 324 325 325 324 321 316 306 303 305 265 281 289 288 310 286 261 265 243 231 234 245 230 252 241 252 246 236 258 284 285 275 290 280 260 286 328 283 306 308 302 302 301 304
271 278 286 291 295 303 311 318 323 321 323 324 323 324 321 319 314 315 320 330 241 230 292 300 311 334 305 296 224 221 228 229 241 238 224 253 245 271 252 264 269 205 206 268 290 346 258 299 314 315 310 304 311 308
269 276 282 286 291 302 310 318 323 320 323 323 322 320 316 315 315 333 315 45 224 231 272 307 294 304 337 237 216 209 223 226 226 228 237 246 249 250 261 267 262 335 349 301 320 308 310 326 332 326 313 322 323 324
265 273 277 282 289 300 309 316 323 320 323 324 321 316 312 314 308 268 261 268 356 253 290 296 285 299 309 211 199 214 211 205 210 228 225 237 252 250 256 263 276 309 301 193 212 339 320 351 327 329 332 339 344 336
265 271 274 278 289 298 310 315 323 318 326 326 320 314 313 314 327 326 19 302 264 274 266 278 279 285 343 198 190 200 178 196 222 239 233 231 243 216 257 258 305 281 193 131 354 355 338 339 340 346 347 352 360 355
262 269 266 275 288 299 311 319 319 322 330 327 317 310 294 202 256 306 303 294 256 230 279 247 278 294 344 316 278 199 194 191 217 219 220 226 215 233 240 300 292 109 114 66 14 355 333 347 346 352 358 4 6 10
258 261 259 273 289 302 311 321 318 331 332 333 351 345 147 82 341 316 331 182 203 222 235 273 271 270 295 288 284 6 137 249 219 218 188 216 246 264 264 285 9 89 53 33 19 344 355 352 353 355 2 8 18 16
255 244 254 273 288 301 316 316 326 335 337 8 345 300 302 294 270 246 214 196 177 235 217 275 292 294 293 259 278 241 252 227 251 114 246 192 278 277 324 89 97 74 27 37 20 12 357 351 7 3 8 15 30 34
240 237 252 274 284 304 310 316 328 338 342 327 315 309 357 324 248 289 254 186 211 330 227 276 288 303 282 301 306 277 258 280 265 176 223 24 291 331 5 46 89 73 54 47 46 31 9 15 9 19 22 22 38 43
229 237 249 264 284 301 303 316 324 332 342 350 352 319 254 268 6 332 0 251 304 324 298 300 315 348 302 346 277 274 291 246 308 334 56 315 330 329 282 160 82 79 81 58 68 28 22 30 21 31 31 32 43 51
229 236 248 258 286 294 299 313 321 330 167 245 230 285 230 160 256 237 344 24 358 334 337 331 310 257 251 260 267 290 308 307 322 21 287 305 334 290 45 91 70 93 71 61 68 45 30 35 29 35 31 37 45 47
228 236 245 265 285 277 299 311 343 126 85 283 303 246 221 344 348 348 337 345 350 329 336 324 299 192 176 286 217 288 300 302 17 357 353 348 322 6 24 86 57 76 89 66 78 65 43 38 39 38 40 43 48 48
223 235 244 260 239 268 286 170 131 86 309 282 251 271 299 329 337 344 350 338 345 343 341 322 302 285 104 288 354 14 14 352 323 319 346 356 356 7 338 318 51 95 90 80 81 71 47 48 49 45 51 50 56 55
217 215 219 206 183 137 142 133 129 211 259 240 246 250 251 353 333 320 329 332 329 341 318 309 360 315 333 0 48 26 344 302 307 341 356 360 357 354 353 25 38 67 71 69 67 72 67 67 57 49 54 52 55 63
199 193 193 177 160 152 147 174 224 202 238 232 254 315 19 330 6 18 346 350 349 330 349 318 339 9 12 25 345 333 333 333 336 354 347 345 359 11 6 356 351 291 121 75 62 52 100 105 68 72 58 56 57 63
191 183 171 163 163 163 194 219 221 264 239 339 306 348 317 55 8 347 342 353 346 330 350 7 53 38 4 336 322 318 326 334 336 336 332 343 359 6 7 355 5 349 98 327 138 57 81 80 91 92 74 74 72 68
182 174 160 164 166 166 195 205 192 261 270 310 287 296 67 63 31 32 28 32 39 53 46 46 22 331 315 316 323 317 320 324 329 329 330 345 348 360 4 15 7 18 216 43 34 98 115 104 97 98 96 87 95 90
176 182 179 173 185 186 256 215 206 229 280 281 290 306 132 100 68 50 38 54 51 46 64 25 348 353 356 349 342 335 326 326 326 317 318 334 346 350 359 6 5 29 224 263 303 291 165 86 126 125 125 121 99 111
146 152 149 164 183 202 253 236 257 345 222 237 272 258 133 124 119 91 64 56 67 49 32 2 4 2 4 3 354 349 345 336 325 322 323 339 347 353 357 2 9 8 23 181 276 331 150 145 175 80 117 109 104 105
149 161 160 191 208 197 253 217 208 217 194 235 235 242 160 103 122 128 82 70 96 36 14 14 6 3 351 349 359 2 5 8 13 17 11 5 2 1 1 1 14 21 11 1 330 276 283 190 184 129 130 138 139 130
145 166 197 192 194 217 204 195 193 215 247 227 258 198 103 126 139 92 90 90 86 18 16 13 13 10 13 7 3 5 9 17 25 22 11 9 8 9 14 14 14 15 16 340 13 301 169 166 185 166 167 146 145 149
167 204 194 221 200 214 202 182 156 232 231 154 211 168 150 138 139 108 105 124 76 20 13 13 14 13 4 7 6 5 9 19 23 27 24 25 18 15 20 21 17 2 7 3 21 65 213 218 163 179 184 167 163 170
206 209 198 197 215 193 205 170 179 188 225 184 214 148 138 108 79 96 82 111 89 30 17 20 16 6 8 5 6 7 3 7 14 21 20 16 21 20 17 15 8 2 7 2 1 3 325 247 220 206 203 195 175 179
229 220 207 220 201 206 196 179 171 177 196 205 155 141 97 131 135 101 139 80 81 53 41 30 12 3 359 360 8 1 6 18 18 23 23 14 25 28 24 13 8 356 349 342 330 326 303 276 218 230 183 201 188 195
235 240 213 213 210 189 188 178 177 186 198 206 149 129 149 120 101 136 151 136 77 67 31 39 19 5 2 15 13 349 0 18 30 36 42 36 33 28 22 15 13 10 4 351 320 279 271 185 167 225 226 200 198 204
231 222 219 190 134 127 199 195 199 215 201 153 133 78 92 96 138 128 135 132 110 78 51 38 25 23 19 14 16 357 355 6 17 23 24 18 17 19 18 10 13 12 10 4 334 288 254 246 238 248 235 233 206 203
239 210 202 180 148 184 191 199 181 101 103 108 105 103 100 112 114 128 126 108 94 90 74 56 30 28 24 21 20 18 3 0 15 18 16 12 8 10 15 7 10 15 16 16 14 357 264 232 240 214 205 211 211 205
221 195 181 186 192 195 207 176 141 125 112 115 128 130 134 127 122 102 113 88 99 99 98 90 62 42 26 19 19 13 13 353 356 5 11 16 15 16 16 14 9 15 22 27 29 31 38 53 163 217 216 219 209 196
216 193 171 168 197 218 166 142 138 135 120 119 128 130 135 137 128 155 193 131 104 91 89 81 58 23 22 20 18 17 358 354 359 355 0 8 13 18 18 13 14 18 24 30 37 40 42 50 61 64 130 204 207 210
208 197 187 193 162 163 174 157 154 152 149 144 157 162 148 137 119 153 164 114 142 124 87 62 64 32 27 26 22 21 13 359 353 350 4 8 7 12 20 18 16 20 26 33 38 44 49 52 58 63 68 74 101 166
Wind_Speed_850mb
39 37 40 41 41 41 42 45 53 52 49 48 48 46 43 38 28 29 25 14 20 30 69 72 62 50 40 43 9 17 19 15 8 6 5 6 5 7 8 9 9 6 5 6 4 7 13 12 6 3 14 52 28 31
41 39 40 41 41 42 43 44 51 53 52 49 49 47 44 38 24 24 35 10 24 36 50 69 89 81 67 75 56 28 16 12 7 6 5 6 6 7 11 7 12 7 5 7 10 10 1 12 11 32 37 44 48 43
39 41 42 41 40 41 44 45 51 51 51 51 49 48 45 40 29 28 38 31 27 37 63 29 41 25 33 28 28 37 14 23 20 15 5 4 7 6 5 8 16 10 24 7 17 12 15 17 20 24 41 50 61 53
38 41 41 42 40 40 42 47 47 50 50 52 50 48 46 43 39 37 47 37 20 21 14 21 35 39 36 29 29 48 47 14 22 21 7 6 5 10 7 14 25 25 21 8 15 13 24 10 27 41 51 53 56 53
39 41 40 41 40 38 41 48 45 50 50 50 49 47 46 43 42 48 43 22 13 23 10 35 80 9 26 20 48 40 44 42 32 8 8 7 8 9 8 10 13 5 4 7 5 4 11 20 47 47 47 50 55 53
42 42 39 40 38 37 43 51 47 50 50 47 46 45 45 44 41 32 10 17 7 23 13 8 28 39 11 10 23 48 44 36 26 8 7 9 20 8 7 7 12 16 38 17 3 13 11 32 43 44 52 40 47 47
44 41 39 39 36 36 43 51 48 52 47 45 43 43 46 38 30 11 9 4 8 18 7 13 14 19 21 15 24 36 42 24 21 9 11 9 13 14 6 16 16 48 44 8 2 18 22 52 48 51 39 36 38 34
45 42 39 37 33 36 43 49 50 49 44 42 39 37 35 25 10 11 12 13 28 18 7 6 9 17 14 8 8 17 15 26 16 9 8 9 11 17 9 24 16 42 20 10 8 19 26 45 47 39 35 41 37 32
42 44 38 32 32 36 43 46 49 44 43 40 30 32 19 3 4 9 18 15 10 13 6 8 6 8 10 7 13 15 20 7 11 7 8 8 7 9 19 13 26 20 13 8 33 26 36 40 46 32 35 42 44 37
43 45 31 30 32 36 41 43 43 40 40 31 15 5 3 4 12 21 6 4 7 6 8 7 12 11 33 21 7 9 3 5 6 12 11 8 7 35 24 16 3 20 13 23 35 32 34 45 43 33 35 37 38 32
45 34 29 29 29 35 37 38 35 37 32 19 11 8 14 15 7 9 10 8 10 5 7 7 17 22 26 9 6 9 6 6 5 5 5 4 3 7 10 6 22 15 18 22 26 10 39 40 29 34 36 37 35 36
38 30 28 28 29 32 34 30 27 27 23 22 13 12 13 6 9 7 6 5 2 1 7 7 10 19 16 10 5 9 6 5 8 10 6 5 6 12 9 3 17 14 14 20 22 21 39 29 40 30 36 39 32 35
37 34 28 28 27 28 26 20 20 21 14 4 5 4 3 6 3 6 10 2 7 7 14 21 10 19 11 10 11 6 8 8 25 2 5 6 28 26 25 7 15 17 17 24 26 26 36 25 34 41 37 38 37 34
40 34 30 24 22 24 16 15 16 10 1 4 8 5 5 5 4 6 8 7 10 21 36 35 17 7 6 4 3 8 8 9 8 7 0 7 52 26 3 12 16 23 18 23 20 24 31 37 27 38 42 36 41 43
37 33 28 16 18 15 10 9 5 3 5 6 7 4 2 15 26 29 29 28 27 30 35 29 21 17 3 5 2 6 8 5 8 10 9 43 63 36 21 4 10 19 21 24 18 24 27 32 48 36 35 44 40 40
33 28 17 13 11 7 5 5 9 8 3 4 7 9 17 14 17 22 25 28 25 26 33 16 6 6 3 2 3 12 8 8 7 13 38 53 63 49 34 14 9 17 20 22 20 18 17 22 40 44 45 47 47 40
30 20 10 11 5 5 12 13 6 5 4 4 12 23 28 17 21 21 19 25 32 13 1 5 6 6 6 9 7 7 8 8 39 41 52 69 63 45 42 22 15 4 12 19 14 10 13 17 29 42 45 49 51 46
26 16 15 10 14 18 11 7 6 8 10 22 15 9 11 16 18 26 27 31 30 28 21 5 9 8 11 8 7 15 42 53 55 53 56 56 46 56 41 42 33 8 8 8 12 17 18 15 23 32 38 37 39 48
28 23 14 16 23 13 9 7 6 7 12 10 10 9 12 16 23 21 17 21 21 22 11 11 11 6 6 10 31 43 48 51 54 56 55 53 55 60 44 42 30 14 4 3 8 9 23 22 23 25 24 26 26 42
26 22 15 15 28 9 6 6 9 7 8 5 10 9 11 12 14 21 23 27 28 15 18 9 8 18 22 35 40 48 47 50 51 56 57 64 61 61 50 49 44 14 11 4 5 17 20 18 21 25 20 28 31 24
26 20 15 24 19 7 6 5 14 9 6 8 9 13 12 17 24 28 28 26 25 12 9 10 21 28 29 32 36 40 36 39 43 46 54 53 58 55 56 56 28 22 4 15 15 4 15 11 18 12 11 20 27 32
22 21 25 17 8 9 7 9 7 6 4 12 12 7 9 11 13 11 19 19 11 11 11 20 24 28 37 44 44 43 39 37 35 27 30 38 49 49 52 57 63 38 15 6 11 14 10 19 15 3 22 33 30 32
27 24 12 11 8 11 11 8 10 10 5 4 4 3 6 6 9 12 9 9 7 16 19 24 24 27 28 35 51 50 45 42 38 31 33 36 38 39 39 37 46 42 20 18 9 11 8 23 12 6 18 21 26 30
26 13 9 13 15 9 10 15 7 2 6 5 3 3 6 8 10 7 6 7 7 10 18 23 29 30 35 36 45 57 50 43 36 36 39 40 46 47 37 26 23 28 26 23 14 6 7 21 20 15 19 18 29 26
8 10 8 10 16 11 10 9 13 6 8 8 6 4 6 9 4 4 6 9 5 10 17 21 24 29 34 40 42 52 51 42 42 39 47 44 46 49 46 37 28 15 26 12 10 8 20 10 14 29 27 17 29 28
7 12 13 20 9 10 11 10 10 10 10 10 9 9 8 7 3 6 6 6 5 9 14 19 25 30 34 35 40 49 52 46 35 35 39 46 49 53 51 52 49 36 28 18 17 17 2 15 20 23 37 23 31 32
7 11 15 17 18 20 9 17 22 9 9 10 7 8 4 7 5 7 12 5 8 10 14 17 19 22 24 30 32 37 48 39 40 26 26 31 35 55 54 52 50 45 38 26 15 15 12 6 12 25 18 39 36 38
14 10 17 28 23 27 8 9 8 11 10 10 14 7 10 4 5 11 11 8 4 8 10 13 15 16 16 20 24 32 44 46 38 34 29 38 45 55 58 54 45 40 29 24 18 16 13 7 9 16 35 27 42 42
13 20 22 14 6 5 9 11 10 13 6 19 9 6 8 9 22 22 17 11 9 7 10 12 16 18 17 18 25 28 41 50 52 58 58 62 64 62 63 63 54 50 43 30 15 17 22 24 28 34 36 45 42 50
13 23 11 19 11 8 13 23 10 23 17 23 28 43 39 32 23 17 16 12 8 9 7 8 13 19 20 22 23 26 34 42 47 50 48 50 52 47 49 56 61 53 50 45 36 14 8 16 21 20 27 31 34 51
12 31 18 15 16 21 24 31 31 29 27 33 33 44 37 27 20 14 18 13 8 8 8 10 12 16 20 21 25 27 28 29 42 46 40 38 42 43 43 44 55 53 51 49 44 41 26 13 1 19 30 31 45 42
20 30 25 8 13 28 36 36 30 30 33 37 39 45 36 20 11 7 2 10 8 12 12 11 10 11 15 16 17 19 25 29 39 44 41 38 40 41 40 42 46 48 49 48 50 48 42 39 33 17 3 28 50 54
34 34 33 19 18 28 35 19 14 21 22 24 29 32 15 13 9 10 7 5 12 12 9 6 5 9 10 12 16 17 18 22 27 32 36 37 38 38 37 38 39 40 41 44 46 47 48 45 44 42 38 27 15 28
Wind_Direction_850mb
285 293 302 308 308 311 317 327 330 330 333 334 334 334 333 331 335 330 326 244 269 278 284 281 278 281 291 289 262 304 332 12 312 323 329 327 330 320 323 325 267 201 228 232 231 250 269 216 311 232 298 301 298 287
284 290 297 303 306 309 315 323 328 326 329 332 332 330 331 328 327 316 311 297 275 281 263 279 284 281 274 265 261 263 232 323 280 300 351 327 330 291 333 279 318 312 159 229 210 227 177 176 225 295 304 307 309 302
278 287 295 300 302 306 313 320 326 324 327 327 327 327 326 323 318 305 298 310 324 289 304 286 286 306 304 258 252 238 224 232 228 263 326 282 271 334 290 270 291 304 298 277 302 263 265 273 292 309 309 302 304 296
275 283 291 295 299 304 311 318 324 323 325 324 325 325 324 321 316 306 303 305 265 281 289 288 310 286 261 265 243 231 234 245 230 252 241 252 246 236 258 284 285 275 290 280 260 286 328 283 306 308 302 302 301 304
271 278 286 291 295 303 311 318 323 321 323 324 323 324 321 319 314 315 320 330 241 230 292 300 311 334 305 296 224 221 228 229 241 238 224 253 245 271 252 264 269 205 206 268 290 346 258 299 314 315 310 304 311 308
269 276 282 286 291 302 310 318 323 320 323 323 322 320 316 315 315 333 315 45 224 231 272 307 294 304 337 237 216 209 223 226 226 228 237 246 249 250 261 267 262 335 349 301 320 308 310 326 332 326 313 322 323 324
265 273 277 282 289 300 309 316 323 320 323 324 321 316 312 314 308 268 261 268 356 253 290 296 285 299 309 211 199 214 211 205 210 228 225 237 252 250 256 263 276 309 301 193 212 339 320 351 327 329 332 339 344 336
265 271 274 278 289 298 310 315 323 318 326 326 320 314 313 314 327 326 19 302 264 274 266 278 279 285 343 198 190 200 178 196 222 239 233 231 243 216 257 258 305 281 193 131 354 355 338 339 340 346 347 352 360 355
262 269 266 275 288 299 311 319 319 322 330 327 317 310 294 202 256 306 303 294 256 230 279 247 278 294 344 316 278 199 194 191 217 219 220 226 215 233 240 300 292 109 114 66 14 355 333 347 346 352 358 4 6 10
258 261 259 273 289 302 311 321 318 331 332 333 351 345 147 82 341 316 331 182 203 222 235 273 271 270 295 288 284 6 137 249 219 218 188 216 246 264 264 285 9 89 53 33 19 344 355 352 353 355 2 8 18 16
255 244 254 273 288 301 316 316 326 335 337 8 345 300 302 294 270 246 214 196 177 235 217 275 292 294 293 259 278 241 252 227 251 114 246 192 278 277 324 89 97 74 27 37 20 12 357 351 7 3 8 15 30 34
240 237 252 274 284 304 310 316 328 338 342 327 315 309 357 324 248 289 254 186 211 330 227 276 288 303 282 301 306 277 258 280 265 176 223 24 291 331 5 46 89 73 54 47 46 31 9 15 9 19 22 22 38 43
229 237 249 264 284 301 303 316 324 332 342 350 352 319 254 268 6 332 0 251 304 324 298 300 315 348 302 346 277 274 291 246 308 334 56 315 330 329 282 160 82 79 81 58 68 28 22 30 21 31 31 32 43 51
229 236 248 258 286 294 299 313 321 330 167 245 230 285 230 160 256 237 344 24 358 334 337 331 310 257 251 260 267 290 308 307 322 21 287 305 334 290 45 91 70 93 71 61 68 45 30 35 29 35 31 37 45 47
228 236 245 265 285 277 299 311 343 126 85 283 303 246 221 344 348 348 337 345 350 329 336 324 299 192 176 286 217 288 300 302 17 357 353 348 322 6 24 86 57 76 89 66 78 65 43 38 39 38 40 43 48 48
223 235 244 260 239 268 286 170 131 86 309 282 251 271 299 329 337 344 350 338 345 343 341 322 302 285 104 288 354 14 14 352 323 319 346 356 356 7 338 318 51 95 90 80 81 71 47 48 49 45 51 50 56 55
217 215 219 206 183 137 142 133 129 211 259 240 246 250 251 353 333 320 329 332 329 341 318 309 360 315 333 0 48 26 344 302 307 341 356 360 357 354 353 25 38 67 71 69 67 72 67 67 57 49 54 52 55 63
199 193 193 177 160 152 147 174 224 202 238 232 254 315 19 330 6 18 346 350 349 330 349 318 339 9 12 25 345 333 333 333 336 354 347 345 359 11 6 356 351 291 121 75 62 52 100 105 68 72 58 56 57 63
191 183 171 163 163 163 194 219 221 264 239 339 306 348 317 55 8 347 342 353 346 330 350 7 53 38 4 336 322 318 326 334 336 336 332 343 359 6 7 355 5 349 98 327 138 57 81 80 91 92 74 74 72 68
182 174 160 164 166 166 195 205 192 261 270 310 287 296 67 63 31 32 28 32 39 53 46 46 22 331 315 316 323 317 320 324 329 329 330 345 348 360 4 15 7 18 216 43 34 98 115 104 97 98 96 87 95 90
176 182 179 173 185 186 256 215 206 229 280 281 290 306 132 100 68 50 38 54 51 46 64 25 348 353 356 349 342 335 326 326 326 317 318 334 346 350 359 6 5 29 224 263 303 291 165 86 126 125 125 121 99 111
146 152 149 164 183 202 253 236 257 345 222 237 272 258 133 124 119 91 64 56 67 49 32 2 4 2 4 3 354 349 345 336 325 322 323 339 347 353 357 2 9 8 23 181 276 331 150 145 175 80 117 109 104 105
149 161 160 191 208 197 253 217 208 217 194 235 235 242 160 103 122 128 82 70 96 36 14 14 6 3 351 349 359 2 5 8 13 17 11 5 2 1 1 1 14 21 11 1 330 276 283 190 184 129 130 138 139 130
145 166 197 192 194 217 204 195 193 215 247 227 258 198 103 126 139 92 90 90 86 18 16 13 13 10 13 7 3 5 9 17 25 22 11 9 8 9 14 14 14 15 16 340 13 301 169 166 185 166 167 146 145 149
167 204 194 221 200 214 202 182 156 232 231 154 211 168 150 138 139 108 105 124 76 20 13 13 14 13 4 7 6 5 9 19 23 27 24 25 18 15 20 21 17 2 7 3 21 65 213 218 163 179 184 167 163 170
206 209 198 197 215 193 205 170 179 188 225 184 214 148 138 108 79 96 82 111 89 30 17 20 16 6 8 5 6 7 3 7 14 21 20 16 21 20 17 15 8 2 7 2 1 3 325 247 220 206 203 195 175 179
229 220 207 220 201 206 196 179 171 177 196 205 155 141 97 131 135 101 139 80 81 53 41 30 12 3 359 360 8 1 6 18 18 23 23 14 25 28 24 13 8 356 349 342 330 326 303 276 218 230 183 201 188 195
235 240 213 213 210 189 188 178 177 186 198 206 149 129 149 120 101 136 151 136 77 67 31 39 19 5 2 15 13 349 0 18 30 36 42 36 33 28 22 15 13 10 4 351 320 279 271 185 167 225 226 200 198 204
231 222 219 190 134 127 199 195 199 215 201 153 133 78 92 96 138 128 135 132 110 78 51 38 25 23 19 14 16 357 355 6 17 23 24 18 17 19 18 10 13 12 10 4 334 288 254 246 238 248 235 233 206 203
239 210 202 180 148 184 191 199 181 101 103 108 105 103 100 112 114 128 126 108 94 90 74 56 30 28 24 21 20 18 3 0 15 18 16 12 8 10 15 7 10 15 16 16 14 357 264 232 240 214 205 211 211 205
221 195 181 186 192 195 207 176 141 125 112 115 128 130 134 127 122 102 113 88 99 99 98 90 62 42 26 19 19 13 13 353 356 5 11 16 15 16 16 14 9 15 22 27 29 31 38 53 163 217 216 219 209 196
216 193 171 168 197 218 166 142 138 135 120 119 128 130 135 137 128 155 193 131 104 91 89 81 58 23 22 20 18 17 358 354 359 355 0 8 13 18 18 13 14 18 24 30 37 40 42 50 61 64 130 204 207 210
208 197 187 193 162 163 174 157 154 152 149 144 157 162 148 137 119 153 164 114 142 124 87 62 64 32 27 26 22 21 13 359 353 350 4 8 7 12 20 18 16 20 26 33 38 44 49 52 58 63 68 74 101 166